sat.trackr.live / text

‹ back to catalog

STARLINK-3200

NORAD 49753 · 2021-115AF

PAYLOAD ACTIVE UNKNOWN

§ Identity

Operator
Country
US
Launch date
2021-12-02
Launch site
AFETR
Launch vehicle
Mass (kg)
RCS (m²)

Purposes: comms

External: N2YO · Heavens-Above · Gunter

§ Orbital elements

Epoch: 2026-05-25T00:45:24.236064Z

Period
95.44 min
Inclination
53.2125°
Eccentricity
0.0001077
Mean motion
15.08834928 rev/d
Perigee alt
539.0 km
Apogee alt
540.5 km
Semi-major
6,917.9 km
B*
2.9332e-5
RAAN
166.4104°
Arg perigee
70.5633°
Mean anomaly
289.5475°
Rev number
24,706

§ Raw data

STARLINK-32001 49753U 21115AF  26145.03153051  .00000179  00000+0  29332-4 0  99932 49753  53.2125 166.4104 0001077  70.5633 289.5475 15.08834928247066

JSON: /api/v1/satellites/49753 · /tle

For live sub-satellite position, see the globe view (requires WebGL).

§ Visibility from observer

Set your observer location to see the next 7 days of passes ≥ 10°. The values pass through the URL so the page stays shareable.

No JS? Fill the form by hand. The geolocation button needs JavaScript.